N7LK Weather Reports


time (UTC)temp
C
wind
direction
speed
KPH
gust
KPH
rain 1hr
cm
rain 24hr
cm
rain mn
cm
humidity
%
barometer
mb
20260503213346 35 38 0.0 14.5 0.00 0.00 0.00 15 1005.8
20260503212405 35 137 6.4 19.3 0.00 0.00 0.00 14 1006.0
20260503211341 35 178 9.7 24.1 0.00 0.00 0.00 15 1006.3
20260503210343 35 128 12.9 29.0 0.00 0.00 0.00 14 1006.5
20260503205341 35 207 11.3 24.1 0.00 0.00 0.00 15 1006.5
20260503204400 34 180 1.6 24.1 0.00 0.00 0.00 16 1006.7
20260503203337 34 171 9.7 25.7 0.00 0.00 0.00 16 1006.9
20260503202333 35 196 11.3 22.5 0.00 0.00 0.00 16 1006.9
20260503201335 34 162 4.8 17.7 0.00 0.00 0.00 17 1007.0
20260503200355 34 186 0.0 11.3 0.00 0.00 0.00 17 1007.3
20260503195333 33 109 6.4 27.4 0.00 0.00 0.00 17 1007.5
20260503194333 33 165 12.9 20.9 0.00 0.00 0.00 17 1007.6
20260503193332 33 176 9.7 22.5 0.00 0.00 0.00 19 1007.7
20260503192335 33 114 4.8 25.7 0.00 0.00 0.00 21 1007.9
20260503191332 33 181 3.2 16.1 0.00 0.00 0.00 21 1008.1
20260503190351 33 124 9.7 16.1 0.00 0.00 0.00 20 1008.3
20260503185328 32 180 6.4 19.3 0.00 0.00 0.00 21 1008.4
20260503184349 32 171 9.7 22.5 0.00 0.00 0.00 21 1008.7
20260503183331 32 178 8.0 16.1 0.00 0.00 0.00 21 1008.8
20260503182331 32 155 6.4 17.7 0.00 0.00 0.00 23 1008.9
20260503181329 31 164 4.8 16.1 0.00 0.00 0.00 23 1009.1
20260503180329 31 161 6.4 14.5 0.00 0.00 0.00 24 1009.3
20260503175328 31 165 0.0 14.5 0.00 0.00 0.00 24 1009.5
20260503174332 31 179 11.3 22.5 0.00 0.00 0.00 24 1009.6
20260503173332 30 146 3.2 14.5 0.00 0.00 0.00 24 1009.6
20260503172333 30 186 3.2 19.3 0.00 0.00 0.00 25 1009.6
20260503171330 30 54 0.0 16.1 0.00 0.00 0.00 25 1009.7
20260503170332 30 112 8.0 17.7 0.00 0.00 0.00 25 1009.7
20260503150339 26 64 1.6 17.7 0.00 0.00 0.00 31 1009.7
20260503131326 24 65 1.6 8.0 0.00 0.00 0.00 32 1008.9
20260503130329 25 124 1.6 9.7 0.00 0.00 0.00 32 1008.8
20260503110340 25 75 1.6 8.0 0.00 0.00 0.00 29 1008.5
20260503090338 25 69 1.6 6.4 0.00 0.00 0.00 24 1008.5
20260503081335 25 67 0.0 0.0 0.00 0.00 0.00 24 1008.8
20260503080333 25 67 0.0 0.0 0.00 0.00 0.00 24 1008.8
20260503072334 26 67 0.0 0.0 0.00 0.00 0.00 23 1009.0
20260503071333 26 95 0.0 1.6 0.00 0.00 0.00 23 1009.0
20260503070350 26 116 0.0 0.0 0.00 0.00 0.00 23 1009.1
20260503060330 25 197 0.0 0.0 0.00 0.00 0.00 30 1008.4
20260503054348 25 204 0.0 0.0 0.00 0.00 0.00 31 1008.4
20260503053345 25 204 0.0 0.0 0.00 0.00 0.00 29 1008.3
20260503052403 25 205 0.0 0.0 0.00 0.00 0.00 28 1008.2
20260503051344 26 205 0.0 0.0 0.00 0.00 0.00 28 1008.4
20260503050342 26 204 0.0 0.0 0.00 0.00 0.00 28 1008.4
20260503045341 26 102 0.0 0.0 0.00 0.00 0.00 28 1008.3
20260503044339 26 94 0.0 0.0 0.00 0.00 0.00 26 1008.2
20260503043335 26 94 0.0 0.0 0.00 0.00 0.00 26 1008.1
20260503042358 27 94 0.0 0.0 0.00 0.00 0.00 25 1008.0
20260503041335 27 95 0.0 0.0 0.00 0.00 0.00 24 1007.9
20260503040354 28 95 0.0 0.0 0.00 0.00 0.00 22 1007.7
20260503035332 28 95 0.0 0.0 0.00 0.00 0.00 22 1007.7
20260503034330 28 95 0.0 0.0 0.00 0.00 0.00 20 1007.5
20260503033334 29 95 0.0 0.0 0.00 0.00 0.00 20 1007.5
20260503032331 29 95 0.0 0.0 0.00 0.00 0.00 18 1007.3
20260503031329 30 130 0.0 0.0 0.00 0.00 0.00 17 1007.1
20260503030328 30 130 0.0 0.0 0.00 0.00 0.00 17 1007.2
20260503025352 30 131 0.0 0.0 0.00 0.00 0.00 16 1007.3
20260503024329 31 131 0.0 0.0 0.00 0.00 0.00 16 1007.1
20260503023328 31 136 0.0 1.6 0.00 0.00 0.00 15 1007.1
20260503022326 31 144 0.0 0.0 0.00 0.00 0.00 15 1007.0
20260503021345 31 144 0.0 3.2 0.00 0.00 0.00 14 1007.0
20260503020327 31 162 0.0 6.4 0.00 0.00 0.00 14 1007.0
20260503015407 32 101 4.8 11.3 0.00 0.00 0.00 14 1007.0
20260503014403 32 105 0.0 4.8 0.00 0.00 0.00 13 1007.1
20260503013341 32 145 0.0 9.7 0.00 0.00 0.00 14 1007.2
20260503012340 32 105 1.6 11.3 0.00 0.00 0.00 14 1007.3
20260503011404 32 175 4.8 12.9 0.00 0.00 0.00 14 1007.3
20260503010341 33 163 1.6 11.3 0.00 0.00 0.00 13 1007.4
20260503005342 32 64 1.6 11.3 0.00 0.00 0.00 14 1007.4
20260503004340 32 9 0.0 14.5 0.00 0.00 0.00 13 1007.4
20260503003339 33 48 0.0 8.0 0.00 0.00 0.00 13 1007.5
20260503002344 33 355 4.8 12.9 0.00 0.00 0.00 13 1007.5
20260503001342 33 93 0.0 9.7 0.00 0.00 0.00 13 1007.6
20260503000341 34 65 1.6 16.1 0.00 0.00 0.00 13 1007.6
20260502235402 34 161 1.6 8.0 0.00 0.00 0.00 13 1007.5
20260502234346 34 119 1.6 11.3 0.00 0.00 0.00 13 1007.6
20260502233334 35 63 0.0 0.0 0.00 0.00 0.00 13 1007.5
20260502232341 35 209 0.0 0.0 0.00 0.00 0.00 12 1007.6
20260502231348 34 267 0.0 0.0 0.00 0.00 0.00 13 1007.7
20260502230339 34 61 1.6 9.7 0.00 0.00 0.00 12 1007.8
20260502225406 34 59 0.0 9.7 0.00 0.00 0.00 13 1007.8
20260502224406 34 175 0.0 12.9 0.00 0.00 0.00 13 1008.1
20260502223332 33 141 0.0 12.9 0.00 0.00 0.00 14 1008.2
20260502222340 33 116 0.0 11.3 0.00 0.00 0.00 14 1008.3
20260502221331 33 182 9.7 25.7 0.00 0.00 0.00 14 1008.5
20260502220335 34 171 9.7 17.7 0.00 0.00 0.00 14 1008.6
20260502215335 33 178 11.3 17.7 0.00 0.00 0.00 14 1008.7
20260502214334 33 236 4.8 17.7 0.00 0.00 0.00 15 1008.9